Miscellaneous Local Product
Issued by NWS North Platte, NE

Home | Current Version | Previous Version | Text Only | Print | Product List | Glossary On
Versions: 1 2 3 4 5 6 7 8 9 10 11 12 13 14 15 16 17 18 19 20 21 22 23 24 25 26 27 28 29 30 31 32 33 34 35 36 37 38 39 40 41 42 43 44 45 46 47 48 49 50
000
AXUS43 KLBF 311810
MISLBF


WESTERN AND NORTH CENTRAL NEBRASKA HOURLY WEATHER ROUNDUP
NATIONAL WEATHER SERVICE NORTH PLATTE NE
100 PM CDT MON AUG 31 2015

NOTE: "FAIR" INDICATES FEW OR NO CLOUDS BELOW 12,000 FEET WITH NO
SIGNIFICANT WEATHER AND/OR OBSTRUCTIONS TO VISIBILITY.

NOTE: STATIONS NOT REPORTING VARIABLES SUCH AS SKY/WEATHER OR
PRESSURE ARE PROVIDED BY THE NEBRASKA DEPARTMENT OF
ROADS...RAWS...AND APRS NETWORKS...AND ARE NOT UNDER
NATIONAL WEATHER SERVICE QUALITY CONTROL.

...OBSERVATIONS IN AND NEAR THE EASTERN PANHANDLE OF NEBRASKA...

CITY           SKY/WX    TMP DP  RH WIND       PRES   REMARKS
PINE RIDGE     CLOUDY    71  55  56 E8        30.02S
CHADRON        CLOUDY    75  54  47 N14       30.02R HAZE
ALLIANCE       CLOUDY    81  51  35 N8        30.02S
SIDNEY         CLOUDY    81  50  33 NE10      30.06S
CRESCENT LAKE    N/A     76  57  51 CALM        N/A
BIG SPRINGS      N/A     86  55  34 N3          N/A
$$

...OBSERVATIONS IN NORTH CENTRAL NEBRASKA...

CITY           SKY/WX    TMP DP  RH WIND       PRES   REMARKS
VALENTINE      SUNNY     85  58  39 NW16G24   29.93R
THEDFORD       SUNNY     89  55  31 N9        29.95S
AINSWORTH      SUNNY     87  54  32 W3        29.91F
O`NEILL        SUNNY     84  64  49 S14G20    29.90F
ORD            SUNNY     85  62  46 S8        29.92F
BROKEN BOW     SUNNY     85  64  49 S8        29.94F
SPRINGVIEW       N/A     89  59  36 CALM        N/A
SARGENT          N/A     83  67  57 SW6         N/A
CHAMBERS         N/A     86  63  46 S9          N/A
EWING            N/A     82  69  64 S8          N/A
$$

...OBSERVATIONS IN SOUTHWEST NEBRASKA AND FAR NORTHEAST COLORADO...

CITY           SKY/WX    TMP DP  RH WIND       PRES   REMARKS
WRAY           CLOUDY    94  46  19 N14G23    29.99S HX  90
HOLYOKE        FAIR      90  45  20 N15       30.00S
IMPERIAL       MOSUNNY   90  52  27 NE14      29.96F
OGALLALA       MOSUNNY   86  52  30 E3        29.96F
NORTH PLATTE   SUNNY     83  57  41 CALM      29.94F
MCCOOK         SUNNY     87  58  37 SE10      29.92F
LEXINGTON      SUNNY     86  61  42 S7        29.93S
PAXTON           N/A     85  58  40 CALM        N/A
BRADY            N/A     80  62  54 CALM        N/A
CALLAWAY         N/A     84  72  67 SE6         N/A
$$

...OBSERVATIONS IN CENTRAL LINCOLN COUNTY AREA...

CITY           SKY/WX    TMP DP  RH WIND       PRES   REMARKS
N.P. AIRPORT   SUNNY     83  57  41 CALM      29.94F
N.P. DOWNTOWN    N/A     82  61  48 MISG        N/A
N.P. SOUTHEAST   N/A     83  59  44 CALM        N/A
N.P. HILLCREST   N/A     83  59  43 E5G12       N/A
$$

...SOME OBSERVATIONS FROM AROUND THE REGION...

CITY           SKY/WX    TMP DP  RH WIND       PRES   REMARKS
DENVER         CLOUDY    81  44  27 VRB7      30.13F
LARAMIE        MOSUNNY   74  43  32 W12       30.24F
CHEYENNE       MOSUNNY   82  43  25 W5        30.16F
SCOTTSBLUFF    PTSUNNY   85  49  28 NW6       30.02F
RAPID CITY     CLOUDY    70  55  59 N12       30.02R
PIERRE         CLOUDY    77  59  53 NW23      29.91R
WINNER         FAIR      83  60  45 NW18      29.89R HAZE
SIOUX FALLS    SUNNY     79  69  71 S21G26    29.88F
OMAHA          MOSUNNY   83  70  64 S12       29.95F
GRAND ISLAND   SUNNY     84  67  56 S13       29.94F
KANSAS CITY    MOSUNNY   86  71  60 S8        29.99F HX  91
WICHITA        MOSUNNY   87  67  51 SE12      29.95F HX  90
HAYS           SUNNY     91  61  35 S12       29.92F HX  91
LIBERAL        SUNNY     91  54  27 S22G29    29.96F
GOODLAND       SUNNY     89  52  28 VRB6      29.97F
$$



USA.gov is the U.S. government's official web portal to all federal, state and local government web resources and services.